This is the latest recevied weather packets stored in our database for station/object KA1JKB. If no packets are shown the sender has not sent any weather packets the latest 10 day(s).
| Time | Temp. | Humidity | Pressure | Rain* | Wind** | Luminosity | Snow |
|---|---|---|---|---|---|---|---|
| 1788121033 | 22.78° C | 86% | 1014.6 hPa | 0 mm | - | 140 W/m² | - |
| 1788120729 | 22.78° C | 86% | 1014.3 hPa | 0 mm | - | 185 W/m² | - |
| 1788120424 | 22.78° C | 87% | 1014.1 hPa | 0 mm | - | 209 W/m² | - |
| 1788120123 | 22.78° C | 87% | 1014.2 hPa | 0 mm | - | 193 W/m² | - |
| 1788119819 | 22.78° C | 88% | 1014.2 hPa | 0 mm | - | 173 W/m² | - |
| 1788119516 | 22.78° C | 89% | 1014.2 hPa | 0 mm | - | 167 W/m² | - |
| 1788119210 | 22.78° C | 89% | 1014.4 hPa | 0 mm | - | 153 W/m² | - |
| 1788118909 | 22.78° C | 88% | 1014.4 hPa | 0 mm | - | 147 W/m² | - |
| 1788118605 | 22.78° C | 89% | 1014.6 hPa | 0 mm | - | 177 W/m² | - |
| 1788118304 | 22.78° C | 89% | 1014.6 hPa | 0 mm | - | 183 W/m² | - |
| 1788118001 | 22.78° C | 88% | 1014.6 hPa | 0 mm | - | 158 W/m² | - |
| 1788117709 | 22.78° C | 88% | 1014.4 hPa | 0 mm | - | 220 W/m² | - |
| 1788117397 | 22.78° C | 88% | 1014.4 hPa | 0 mm | - | 282 W/m² | - |
| 1788117091 | 23.33° C | 88% | 1014.2 hPa | 0 mm | - | 609 W/m² | - |
| 1788116788 | 22.78° C | 89% | 1014.3 hPa | 0 mm | - | 331 W/m² | - |
| 1788116482 | 22.78° C | 89% | 1014.4 hPa | 0 mm | - | 332 W/m² | - |
| 1788116184 | 22.22° C | 91% | 1014.7 hPa | 0 mm | - | 304 W/m² | - |
| 1788115877 | 22.22° C | 90% | 1014.8 hPa | 0 mm | - | 189 W/m² | - |
| 1788115576 | 22.22° C | 91% | 1014.7 hPa | 0 mm | - | 218 W/m² | - |
| 1788115275 | 22.22° C | 91% | 1014.6 hPa | 0 mm | - | 279 W/m² | - |
| 1788114970 | 21.67° C | 91% | 1014.4 hPa | 0 mm | - | 279 W/m² | - |
| 1788114666 | 21.67° C | 91% | 1014.4 hPa | 0 mm | - | 260 W/m² | - |
| 1788114361 | 21.67° C | 92% | 1014.9 hPa | 0 mm | - | 377 W/m² | - |
| 1788114058 | 21.11° C | 93% | 1014.8 hPa | 0 mm | - | 308 W/m² | - |
| 1788113754 | 21.11° C | 94% | 1014.9 hPa | 0 mm | - | 251 W/m² | - |
* Rain latest hour (hover to see other rain measurements)
** Current wind speed in m/s (hover to see current wind gust speed)